CW6353 Weather Reports


time (UTC)temp
C
wind
direction
speed
KPH
gust
KPH
rain 1hr
cm
rain 24hr
cm
rain mn
cm
humidity
%
barometer
mb
20260506161004 23 249 8.0 24.1 0.00 0.00 0.00 75 1014.9
20260506160503 23 232 12.9 24.1 0.00 0.00 0.00 75 1014.9
20260506160003 23 278 6.4 24.1 0.00 0.00 0.00 75 1014.8
20260506155504 23 183 8.0 17.7 0.00 0.00 0.00 75 1014.9
20260506155003 23 177 6.4 20.9 0.00 0.00 0.00 75 1014.7
20260506154503 23 229 9.7 20.9 0.00 0.00 0.00 76 1014.8
20260506154003 23 225 12.9 20.9 0.00 0.00 0.00 75 1014.9
20260506153503 23 200 11.3 29.0 0.00 0.00 0.00 76 1015.0
20260506153004 22 265 12.9 29.0 0.00 0.00 0.00 76 1015.1
20260506152504 22 225 11.3 25.7 0.00 0.00 0.00 76 1015.0
20260506152002 22 227 8.0 25.7 0.00 0.00 0.00 77 1015.1
20260506151504 22 211 12.9 27.4 0.00 0.00 0.00 77 1015.1
20260506151003 22 235 14.5 27.4 0.00 0.00 0.00 77 1015.1
20260506150504 22 236 14.5 22.5 0.00 0.00 0.00 77 1015.1
20260506150003 22 219 6.4 24.1 0.00 0.00 0.00 78 1015.1
20260506145503 22 224 11.3 25.7 0.00 0.00 0.00 78 1015.1
20260506145003 21 250 14.5 25.7 0.00 0.00 0.00 78 1015.2
20260506144506 21 226 12.9 24.1 0.00 0.00 0.00 79 1015.3
20260506144006 21 213 9.7 29.0 0.00 0.00 0.00 79 1015.4
20260506143505 21 227 17.7 29.0 0.00 0.00 0.00 79 1015.2
20260506143003 21 211 14.5 27.4 0.00 0.00 0.00 79 1015.4
20260506142503 21 225 14.5 27.4 0.00 0.00 0.00 79 1015.5
20260506142002 21 172 14.5 24.1 0.00 0.00 0.00 79 1015.4
20260506141514 21 217 6.4 24.1 0.00 0.00 0.00 80 1015.4
20260506141004 21 225 12.9 24.1 0.00 0.00 0.00 80 1015.5
20260506140504 20 215 11.3 20.9 0.00 0.00 0.00 82 1015.4
20260506140004 20 225 11.3 17.7 0.00 0.00 0.00 81 1015.4
20260506135503 20 219 9.7 17.7 0.00 0.00 0.00 82 1015.4
20260506135003 20 231 11.3 17.7 0.00 0.00 0.00 82 1015.5
20260506134510 20 186 6.4 22.5 0.00 0.00 0.00 83 1015.4
20260506134004 20 221 12.9 22.5 0.00 0.00 0.00 83 1015.5
20260506133500 19 221 9.7 19.3 0.00 0.00 0.00 83 1015.5
20260506133014 19 202 8.0 19.3 0.00 0.00 0.00 84 1015.5
20260506132503 19 242 6.4 19.3 0.00 0.00 0.00 84 1015.4
20260506132007 19 209 9.7 19.3 0.00 0.00 0.00 84 1015.4
20260506131513 19 218 8.0 19.3 0.00 0.00 0.00 84 1015.5
20260506131003 18 233 12.9 19.3 0.00 0.00 0.00 84 1015.5
20260506130506 18 254 9.7 17.7 0.00 0.00 0.00 84 1015.5
20260506130006 18 244 9.7 20.9 0.00 0.00 0.00 84 1015.5
20260506125507 18 246 6.4 20.9 0.00 0.00 0.00 84 1015.5
20260506125004 18 250 8.0 22.5 0.00 0.00 0.00 84 1015.4
20260506124508 18 244 12.9 22.5 0.00 0.00 0.00 84 1015.4
20260506124003 18 243 8.0 20.9 0.00 0.00 0.00 84 1015.4
20260506123506 18 196 9.7 17.7 0.00 0.00 0.00 84 1015.3
20260506123006 18 214 9.7 20.9 0.00 0.00 0.00 84 1014.9
20260506122505 18 227 11.3 20.9 0.00 0.00 0.00 84 1014.9
20260506122005 18 242 9.7 19.3 0.00 0.00 0.00 84 1014.8
20260506121508 18 205 9.7 20.9 0.00 0.00 0.00 84 1014.8
20260506121008 18 227 11.3 25.7 0.00 0.00 0.00 84 1014.7
20260506120503 18 237 12.9 25.7 0.00 0.00 0.00 84 1014.3
20260506120041 18 235 8.0 20.9 0.00 0.00 0.00 84 1014.3
20260506115503 18 238 12.9 27.4 0.00 0.00 0.00 84 1014.3
20260506115005 18 208 9.7 27.4 0.00 0.00 0.00 84 1014.3
20260506114506 18 216 11.3 19.3 0.00 0.00 0.00 84 1014.4
20260506114007 18 233 8.0 22.5 0.00 0.00 0.00 84 1014.2
20260506113508 18 207 16.1 22.5 0.00 0.00 0.00 84 1014.1
20260506113008 18 257 11.3 22.5 0.00 0.00 0.00 84 1014.1
20260506112503 18 258 4.8 16.1 0.00 0.00 0.00 84 1014.0
20260506112003 18 238 6.4 22.5 0.00 0.00 0.00 84 1014.0
20260506111515 18 209 8.0 22.5 0.00 0.00 0.00 84 1014.0
20260506111003 18 234 9.7 22.5 0.00 0.00 0.00 84 1013.8
20260506110508 18 222 12.9 19.3 0.00 0.00 0.00 84 1013.9
20260506110010 18 229 9.7 24.1 0.00 0.00 0.00 84 1013.8
20260506105508 18 208 9.7 24.1 0.00 0.00 0.00 84 1013.6
20260506105007 18 233 11.3 17.7 0.00 0.00 0.00 84 1013.5
20260506104521 18 242 8.0 16.1 0.00 0.00 0.00 84 1013.4
20260506104009 18 209 8.0 19.3 0.00 0.00 0.00 83 1013.3
20260506103504 18 240 8.0 19.3 0.00 0.00 0.00 83 1013.2
20260506103023 18 198 9.7 20.9 0.00 0.00 0.00 83 1013.3
20260506102509 18 219 12.9 20.9 0.00 0.00 0.00 83 1013.3
20260506102003 18 219 6.4 16.1 0.00 0.00 0.00 83 1013.2
20260506101512 18 209 6.4 17.7 0.00 0.00 0.00 83 1013.1
20260506101003 18 225 6.4 17.7 0.00 0.00 0.00 83 1013.0
20260506100502 18 227 8.0 16.1 0.00 0.00 0.00 83 1013.0
20260506100005 18 212 6.4 16.1 0.00 0.00 0.00 82 1012.8
20260506095502 18 225 9.7 16.1 0.00 0.00 0.00 82 1012.5
20260506095004 18 201 4.8 17.7 0.00 0.00 0.00 82 1012.4
20260506094504 18 209 9.7 17.7 0.00 0.00 0.00 82 1012.4
20260506094002 18 233 4.8 16.1 0.00 0.00 0.00 82 1012.3
20260506093504 18 194 6.4 14.5 0.00 0.00 0.00 82 1012.1
20260506093002 18 228 4.8 14.5 0.00 0.00 0.00 82 1012.0
20260506092504 18 179 6.4 20.9 0.00 0.00 0.00 82 1012.1
20260506092003 18 215 8.0 20.9 0.00 0.00 0.00 82 1012.1
20260506091503 18 234 8.0 17.7 0.00 0.00 0.00 82 1012.0
20260506091002 18 178 6.4 20.9 0.00 0.00 0.00 82 1012.1
20260506090501 18 203 8.0 20.9 0.00 0.00 0.00 82 1012.1
20260506090002 18 173 4.8 16.1 0.00 0.00 0.00 82 1012.1
20260506085503 18 211 8.0 16.1 0.00 0.00 0.00 82 1012.0
20260506085002 18 157 3.2 16.1 0.00 0.00 0.00 81 1012.1
20260506084504 18 201 6.4 19.3 0.00 0.00 0.00 81 1012.1
20260506084006 18 224 6.4 27.4 0.00 0.00 0.00 81 1012.1
20260506083502 18 209 9.7 27.4 0.00 0.00 0.00 81 1012.1
20260506083006 18 219 8.0 19.3 0.00 0.00 0.00 81 1012.1
20260506082504 18 226 9.7 17.7 0.00 0.00 0.00 81 1012.1
20260506082001 18 173 6.4 17.7 0.00 0.00 0.00 80 1012.1
20260506081506 18 196 6.4 19.3 0.00 0.00 0.00 80 1012.2
20260506081002 18 223 9.7 20.9 0.00 0.00 0.00 80 1012.2
20260506080506 18 168 9.7 20.9 0.00 0.00 0.00 80 1012.3
20260506073501 17 207 6.4 14.5 0.00 0.00 0.00 80 1012.1
20260506073003 17 208 6.4 14.5 0.00 0.00 0.00 80 1012.2
20260506072502 17 196 6.4 14.5 0.00 0.00 0.00 80 1012.4
20260506072001 17 209 6.4 14.5 0.00 0.00 0.00 80 1012.4
20260506071503 17 244 8.0 14.5 0.00 0.00 0.00 80 1012.5
20260506071005 18 186 4.8 12.9 0.00 0.00 0.00 79 1012.5
20260506070502 18 185 4.8 12.9 0.00 0.00 0.00 79 1012.5
20260506062501 18 179 6.4 12.9 0.00 0.00 0.00 77 1013.0
20260506062003 18 197 6.4 12.9 0.00 0.00 0.00 77 1013.0
20260506061506 18 207 3.2 14.5 0.00 0.00 0.00 76 1013.1
20260506061003 18 219 4.8 14.5 0.00 0.00 0.00 76 1013.1
20260506060502 18 217 6.4 19.3 0.00 0.00 0.00 76 1013.2
20260506051002 19 200 8.0 17.7 0.00 0.00 0.00 73 1013.2
20260506050502 19 192 9.7 17.7 0.00 0.00 0.00 72 1013.1
20260506045002 20 185 8.0 19.3 0.00 0.00 0.00 71 1012.9
20260506044515 20 236 6.4 19.3 0.00 0.00 0.00 71 1013.0
20260506044004 20 213 11.3 19.3 0.00 0.00 0.00 71 1013.0
20260506043505 20 204 9.7 24.1 0.00 0.00 0.00 70 1013.2
20260506043016 20 190 11.3 24.1 0.00 0.00 0.00 70 1013.2
20260506042504 20 244 14.5 24.1 0.00 0.00 0.00 71 1013.2
20260506042008 20 231 8.0 22.5 0.00 0.00 0.00 71 1013.2
20260506041515 20 231 6.4 17.7 0.00 0.00 0.00 71 1013.1
20260506041003 20 168 6.4 16.1 0.00 0.00 0.00 71 1013.2
20260506040502 20 225 6.4 16.1 0.00 0.00 0.00 71 1013.3
20260506040006 20 208 6.4 16.1 0.00 0.00 0.00 71 1013.4
20260506035503 20 223 6.4 16.1 0.00 0.00 0.00 71 1013.3
20260506035003 20 189 6.4 16.1 0.00 0.00 0.00 70 1013.3
20260506034511 20 199 8.0 24.1 0.00 0.00 0.00 70 1013.3
20260506034004 20 150 9.7 24.1 0.00 0.00 0.00 70 1013.4
20260506033506 20 199 9.7 22.5 0.00 0.00 0.00 69 1013.3
20260506033008 21 194 12.9 22.5 0.00 0.00 0.00 69 1013.2
20260506032507 21 223 8.0 20.9 0.00 0.00 0.00 69 1013.4
20260506032010 21 213 11.3 20.9 0.00 0.00 0.00 69 1013.4
20260506031520 21 213 9.7 22.5 0.00 0.00 0.00 69 1013.2
20260506031007 21 201 8.0 22.5 0.00 0.00 0.00 68 1013.0
20260506030506 21 197 8.0 17.7 0.00 0.00 0.00 68 1012.9
20260506030022 21 228 8.0 22.5 0.00 0.00 0.00 68 1012.9
20260506025506 21 207 8.0 22.5 0.00 0.00 0.00 68 1012.8
20260506025005 21 211 8.0 20.9 0.00 0.00 0.00 68 1012.8
20260506024506 21 194 6.4 20.9 0.00 0.00 0.00 67 1012.9
20260506024004 21 199 8.0 25.7 0.00 0.00 0.00 66 1012.8
20260506023504 21 209 11.3 25.7 0.00 0.00 0.00 66 1012.8
20260506023012 21 199 6.4 20.9 0.00 0.00 0.00 66 1012.8
20260506022503 21 171 9.7 20.9 0.00 0.00 0.00 66 1012.8
20260506022003 21 193 8.0 20.9 0.00 0.00 0.00 65 1012.8
20260506021530 21 186 8.0 19.3 0.00 0.00 0.00 65 1012.8
20260506021004 21 200 9.7 19.3 0.00 0.00 0.00 65 1013.0
20260506020503 21 188 8.0 16.1 0.00 0.00 0.00 65 1012.7
20260506020004 21 204 4.8 16.1 0.00 0.00 0.00 64 1012.5
20260506015503 21 227 4.8 16.1 0.00 0.00 0.00 64 1012.3
20260506015004 21 215 6.4 12.9 0.00 0.00 0.00 63 1012.2
20260506014505 21 207 3.2 16.1 0.00 0.00 0.00 62 1012.3
20260506014004 22 205 4.8 16.1 0.00 0.00 0.00 62 1012.4
20260506013503 22 222 6.4 14.5 0.00 0.00 0.00 62 1012.5
20260506013008 22 204 4.8 9.7 0.00 0.00 0.00 62 1012.5
20260506012504 22 186 3.2 11.3 0.00 0.00 0.00 61 1012.4
20260506012005 22 173 1.6 11.3 0.00 0.00 0.00 61 1012.4
20260506011506 22 141 3.2 11.3 0.00 0.00 0.00 60 1012.4
20260506011007 22 200 3.2 12.9 0.00 0.00 0.00 60 1012.4
20260506010504 22 205 6.4 12.9 0.00 0.00 0.00 59 1012.4
20260506010004 22 180 3.2 11.3 0.00 0.00 0.00 59 1012.3
20260506005507 22 167 3.2 11.3 0.00 0.00 0.00 59 1012.4
20260506005004 22 178 4.8 11.3 0.00 0.00 0.00 59 1012.3
20260506004505 22 167 3.2 9.7 0.00 0.00 0.00 58 1012.1
20260506004006 22 210 3.2 12.9 0.00 0.00 0.00 59 1012.1
20260506003507 22 199 3.2 12.9 0.00 0.00 0.00 58 1012.1
20260506003004 22 207 4.8 11.3 0.00 0.00 0.00 58 1012.0
20260506002506 22 224 4.8 11.3 0.00 0.00 0.00 57 1012.0
20260506002003 22 218 3.2 12.9 0.00 0.00 0.00 57 1012.0
20260506001508 22 200 4.8 12.9 0.00 0.00 0.00 58 1012.2
20260506001004 22 176 3.2 11.3 0.00 0.00 0.00 57 1012.3
20260506000504 22 201 1.6 9.7 0.00 0.00 0.00 57 1012.3
20260506000015 23 213 3.2 9.7 0.00 0.00 0.00 57 1012.3
20260505235505 23 221 3.2 8.0 0.00 0.00 0.00 56 1012.2
20260505235008 23 228 1.6 9.7 0.00 0.00 0.00 55 1012.0
20260505234514 23 194 3.2 9.7 0.00 0.00 0.00 55 1012.1
20260505234004 23 185 1.6 8.0 0.00 0.00 0.00 53 1012.1
20260505233510 23 159 3.2 8.0 0.00 0.00 0.00 54 1012.4
20260505233004 23 201 1.6 8.0 0.00 0.00 0.00 54 1012.6
20260505232503 23 205 1.6 9.7 0.00 0.00 0.00 51 1012.5
20260505232006 23 215 4.8 12.9 0.00 0.00 0.00 51 1012.7
20260505231512 23 198 1.6 12.9 0.00 0.00 0.00 52 1012.7
20260505231008 23 231 1.6 8.0 0.00 0.00 0.00 51 1012.6
20260505230504 23 199 3.2 11.3 0.00 0.00 0.00 50 1012.5
20260505230015 23 163 3.2 12.9 0.00 0.00 0.00 51 1012.5
20260505225505 23 196 3.2 12.9 0.00 0.00 0.00 50 1012.7
20260505225005 23 196 6.4 12.9 0.00 0.00 0.00 48 1012.8
20260505224517 23 189 3.2 11.3 0.00 0.00 0.00 48 1012.8
20260505224009 23 169 4.8 11.3 0.00 0.00 0.00 48 1012.6
20260505223505 23 160 3.2 12.9 0.00 0.00 0.00 49 1012.7
20260505223021 24 203 4.8 11.3 0.00 0.00 0.00 48 1012.8
20260505222507 24 193 6.4 17.7 0.00 0.00 0.00 48 1012.8
20260505222004 24 204 4.8 16.1 0.00 0.00 0.00 46 1012.8
20260505221507 24 188 6.4 19.3 0.00 0.00 0.00 45 1012.7
20260505221003 25 240 6.4 19.3 0.00 0.00 0.00 45 1012.8
20260505220504 25 216 9.7 19.3 0.00 0.00 0.00 43 1012.8
20260505220009 25 213 9.7 16.1 0.00 0.00 0.00 45 1012.8
20260505215508 25 200 4.8 19.3 0.00 0.00 0.00 47 1012.8
20260505215007 25 200 9.7 19.3 0.00 0.00 0.00 45 1013.0
20260505214516 25 220 9.7 16.1 0.00 0.00 0.00 45 1012.9
20260505214008 25 201 3.2 24.1 0.00 0.00 0.00 46 1012.8
20260505213506 25 182 6.4 30.6 0.00 0.00 0.00 45 1012.9
20260505213017 25 250 17.7 30.6 0.00 0.00 0.00 43 1012.7
20260505212510 26 194 6.4 22.5 0.00 0.00 0.00 43 1012.7
20260505212010 26 182 6.4 22.5 0.00 0.00 0.00 42 1012.7
20260505211512 26 261 6.4 24.1 0.00 0.00 0.00 45 1012.5
20260505211007 26 196 11.3 24.1 0.00 0.00 0.00 42 1012.6
20260505210506 26 227 14.5 22.5 0.00 0.00 0.00 42 1012.8
20260505210012 26 274 6.4 20.9 0.00 0.00 0.00 47 1012.6
20260505205509 26 208 9.7 20.9 0.00 0.00 0.00 45 1012.8
20260505205008 26 175 8.0 22.5 0.00 0.00 0.00 43 1012.7
20260505204515 26 213 11.3 24.1 0.00 0.00 0.00 43 1012.9
20260505204005 26 119 9.7 19.3 0.00 0.00 0.00 46 1012.8
20260505203508 26 146 3.2 11.3 0.00 0.00 0.00 46 1012.9
20260505203028 26 227 4.8 19.3 0.00 0.00 0.00 46 1012.9
20260505202506 25 168 8.0 19.3 0.00 0.00 0.00 45 1013.2
20260505202006 25 209 6.4 16.1 0.00 0.00 0.00 48 1013.2
20260505201512 25 117 6.4 29.0 0.00 0.00 0.00 48 1013.3
20260505201003 25 221 8.0 29.0 0.00 0.00 0.00 48 1013.3
20260505200503 25 217 11.3 20.9 0.00 0.00 0.00 45 1013.3
20260505200007 25 225 9.7 29.0 0.00 0.00 0.00 46 1013.4
20260505195502 25 213 11.3 29.0 0.00 0.00 0.00 47 1013.4
20260505195002 25 170 9.7 19.3 0.00 0.00 0.00 49 1013.6
20260505194512 24 184 6.4 25.7 0.00 0.00 0.00 50 1013.6
20260505194007 25 245 16.1 25.7 0.00 0.00 0.00 46 1013.7
20260505193503 25 214 9.7 20.9 0.00 0.00 0.00 48 1013.6
20260505193020 25 162 6.4 20.9 0.00 0.00 0.00 48 1013.9
20260505192507 25 170 6.4 17.7 0.00 0.00 0.00 49 1014.0
20260505192007 24 127 8.0 24.1 0.00 0.00 0.00 49 1013.9
20260505191516 24 215 11.3 24.1 0.00 0.00 0.00 48 1014.0
20260505191004 25 263 8.0 22.5 0.00 0.00 0.00 49 1013.9
20260505190510 25 235 12.9 22.5 0.00 0.00 0.00 49 1014.2
20260505190010 24 154 8.0 19.3 0.00 0.00 0.00 54 1014.2
20260505185505 24 82 12.9 19.3 0.00 0.00 0.00 51 1014.3
20260505185003 24 260 6.4 19.3 0.00 0.00 0.00 51 1014.2
20260505184508 24 217 9.7 19.3 0.00 0.00 0.00 52 1014.3
20260505184006 24 242 11.3 17.7 0.00 0.00 0.00 52 1014.4
20260505183504 24 165 8.0 25.7 0.00 0.00 0.00 53 1014.4
20260505183011 24 202 9.7 25.7 0.00 0.00 0.00 53 1014.4
20260505182507 24 190 8.0 17.7 0.00 0.00 0.00 51 1014.4
20260505182008 23 206 3.2 22.5 0.00 0.00 0.00 52 1014.4
20260505181521 23 205 12.9 22.5 0.00 0.00 0.00 49 1014.5
20260505181009 23 211 9.7 22.5 0.00 0.00 0.00 52 1014.5
20260505180503 23 142 9.7 17.7 0.00 0.00 0.00 54 1014.7
20260505180023 23 171 4.8 17.7 0.00 0.00 0.00 55 1014.8
20260505175512 23 272 9.7 17.7 0.00 0.00 0.00 56 1014.9
20260505175003 23 150 4.8 17.7 0.00 0.00 0.00 54 1015.0
20260505174509 22 196 6.4 29.0 0.00 0.00 0.00 55 1015.1
20260505174004 22 233 14.5 29.0 0.00 0.00 0.00 55 1015.1
20260505173505 22 233 8.0 22.5 0.00 0.00 0.00 55 1015.3
20260505173012 22 235 11.3 27.4 0.00 0.00 0.00 55 1015.3
20260505172504 22 171 4.8 27.4 0.00 0.00 0.00 55 1015.2
20260505172005 22 215 12.9 22.5 0.00 0.00 0.00 57 1015.5
20260505171505 22 253 9.7 17.7 0.00 0.00 0.00 57 1015.6
20260505171002 21 224 3.2 17.7 0.00 0.00 0.00 61 1015.6
20260505170503 22 256 6.4 17.7 0.00 0.00 0.00 58 1015.6
20260505170002 22 250 11.3 20.9 0.00 0.00 0.00 56 1015.7
20260505165503 22 199 4.8 20.9 0.00 0.00 0.00 61 1015.6
20260505165003 22 295 8.0 20.9 0.00 0.00 0.00 60 1015.6
20260505164503 21 203 6.4 14.5 0.00 0.00 0.00 57 1015.6
20260505164003 21 226 9.7 19.3 0.00 0.00 0.00 57 1015.6
20260505163503 21 250 16.1 19.3 0.00 0.00 0.00 59 1015.6
20260505163010 21 211 6.4 14.5 0.00 0.00 0.00 55 1015.6
20260505162504 21 144 6.4 14.5 0.00 0.00 0.00 61 1015.5
20260505162003 21 205 8.0 14.5 0.00 0.00 0.00 56 1015.5
20260505161506 21 236 6.4 14.5 0.00 0.00 0.00 56 1015.6